Regional Weather Roundup
Issued by NWS

Home | Current Version | Previous Version | Text Only | Print | Product List | Glossary On
Versions: 1 2 3 4 5 6 7 8 9 10 11 12 13 14 15 16 17 18 19 20 21 22 23 24 25 26 27 28 29 30 31 32 33 34 35 36 37 38 39 40 41 42 43 44 45 46 47 48 49 50
000
ASUS44 KOUN 011010
RWROK

WEATHER ROUNDUP FOR OKLAHOMA
NATIONAL WEATHER SERVICE NORMAN OK
500 AM CDT SUN MAY 01 2016

NOTE: "FAIR" INDICATES FEW OR NO CLOUDS BELOW 12,000 FEET WITH NO
      SIGNIFICANT WEATHER AND/OR OBSTRUCTIONS TO VISIBILITY.

OKZ001>007-009>012-014-015-017-011100-
NORTHWEST OKLAHOMA AND THE PANHANDLE

CITY           SKY/WX    TMP DP  RH WIND       PRES   REMARKS
GAGE           CLOUDY    43  36  76 NW13G18   30.07R
GUYMON         CLOUDY    43  33  68 NW13      30.10R
ENID/WOODRING  PTCLDY    45  37  76 NW13G20   30.02R
$$

OKZ016-021>023-033>039-044-045-011100-
SOUTHWEST OKLAHOMA

CITY           SKY/WX    TMP DP  RH WIND       PRES   REMARKS
LAWTON/REGL    PTCLDY    50  39  66 N10G18    30.03R
LAWTON/FT SILL PTCLDY    50  40  69 N12G18    30.02R
FREDERICK      PTCLDY    50  40  68 N18G24    30.01S
CLINTON        PTCLDY    46  35  65 NW17G25   30.06F
HOBART         PTCLDY    47  36  65 N15       30.06R
ALTUS AFB      PTCLDY    49  34  56 N15G29    30.05R
$$

OKZ018>020-024>031-011100-
CENTRAL OKLAHOMA

CITY           SKY/WX    TMP DP  RH WIND       PRES   REMARKS
OKLAHOMA CITY  PTCLDY    48  40  73 NW14      30.02R
OKC/WILEY POST CLEAR     47  39  74 NW10      30.03R
OKC/TINKER AFB CLEAR     48  40  73 NW12      30.00R
STILLWATER     CLEAR     46  41  82 W8        29.99R
GUTHRIE        CLEAR     46  40  79 NW9       30.03R
$$

OKZ008-013-054>072-011100-
NORTHEAST OKLAHOMA

CITY           SKY/WX    TMP DP  RH WIND       PRES   REMARKS
TULSA          CLEAR     49  46  90 W5        29.94R
TULSA/JONES    CLEAR     48  46  93 CALM      29.95S
PONCA CITY     PTCLDY    44  39  82 NW7       29.97F
BARTLESVILLE   CLEAR     45  42  89 VRB3      29.96S
MUSKOGEE       CLEAR     49  47  93 CALM      29.95S
$$

OKZ032-040>043-046>053-073>077-011100-
SOUTH CENTRAL/SOUTHEAST OKLAHOMA

CITY           SKY/WX    TMP DP  RH WIND       PRES   REMARKS
ARDMORE/DWNTWN CLEAR     54  45  71 N3        29.97S
MCALESTER      CLEAR     51  48  89 NE3       29.93F
$$




USA.gov is the U.S. government's official web portal to all federal, state and local government web resources and services.